Weather History for KMKC - September, 2013

Change the Weather History Date:

Friday, September 20, 2013

  Actual Average (KMCI) Record (KMCI)
Temperature  
Mean Temperature 70 °F 66 °F  
Max Temperature 73 °F 77 °F 95 °F (1948)
Min Temperature 59 °F 55 °F 38 °F (1983)
Degree Days  
Heating Degree Days 0 3  
Month to date heating degree days 24  
Since 1 July heating degree days 26  
Cooling Degree Days 6 4  
Month to date cooling degree days 129  
Year to date cooling degree days 1302  
Growing Degree Days 20 (Base 50)    
Moisture  
Dew Point 53 °F    
Average Humidity 62    
Maximum Humidity 83    
Minimum Humidity 42    
Precipitation  
Precipitation 0.00 in 0.16 in 3.73 in (1957)
Month to date precipitation 3.13  
Year to date precipitation 30.53  
Snow  
Snow 0.00 in 0.00 in 0.00 in ()
Month to date snowfall 0.0  
Since 1 July snowfall 0.0  
Since 1 September snowfall 0.0  
Snow Depth -    
Sea Level Pressure  
Sea Level Pressure 29.98 in    
Wind  
Wind Speed 6 mph (NW)    
Max Wind Speed 10 mph    
Max Gust Speed 16 mph    
Visibility 10 miles    
Events      
T = Trace of Precipitation, MM = Missing Value Source: NWS Daily Summary

Daily Weather History Graph

Daily Weather History Graph

Search for Another Location

Airport or City:

Trip Planner

Search our weather history database for the weather conditions in past years. The results will help you decide how hot, cold, wet, or windy it might be!

Date:

Astronomy

Sep. 20, 2013 Rise Set
Actual Time 7:04 AM CDT 7:18 PM CDT
Civil Twilight 6:37 AM CDT 7:44 PM CDT
Nautical Twilight 6:06 AM CDT 8:16 PM CDT
Astronomical Twilight 5:34 AM CDT 8:47 PM CDT
Moon 7:53 PM CDT (9/20) 8:19 AM CDT (9/20)
Length of Visible Light 13h 07m
Length of Day
12h 13m
Full, 98% of the Moon is Illuminated
Sep 20
Full
Sep 26
Last Quarter
Oct 4
New
Oct 11
First Quarter
Oct 18
Full

Hourly Weather History & Observations

Time (CDT) Temp. Heat Index Dew Point Humidity Pressure Visibility Wind Dir Wind Speed Gust Speed Precip Events Conditions
12:03 AM 77.0 °F - 64.4 °F 65% 29.91 in 10.0 mi WSW 4.6 mph - N/A   Mostly Cloudy
12:54 AM 81.0 °F 82.7 °F 64.9 °F 58% 29.90 in 10.0 mi NW 6.9 mph - N/A   Overcast
1:15 AM 69.8 °F - 64.4 °F 83% 29.93 in 10.0 mi Calm Calm - N/A   Overcast
1:54 AM 68.0 °F - 62.1 °F 81% 29.93 in 10.0 mi NNW 8.1 mph - N/A   Overcast
2:54 AM 66.0 °F - 57.9 °F 75% 29.94 in 10.0 mi North 9.2 mph - N/A   Partly Cloudy
3:54 AM 64.0 °F - 55.0 °F 73% 29.96 in 10.0 mi NW 3.5 mph - N/A   Overcast
4:54 AM 63.0 °F - 54.0 °F 72% 29.97 in 10.0 mi Calm Calm - N/A   Overcast
5:54 AM 62.1 °F - 54.0 °F 75% 29.98 in 10.0 mi WNW 4.6 mph - N/A   Scattered Clouds
6:54 AM 62.1 °F - 53.1 °F 72% 30.00 in 10.0 mi NNW 6.9 mph - N/A   Clear
7:54 AM 61.0 °F - 52.0 °F 72% 30.02 in 10.0 mi NNW 6.9 mph - N/A   Clear
8:54 AM 62.1 °F - 52.0 °F 70% 30.02 in 10.0 mi Variable 6.9 mph - N/A   Clear
9:54 AM 63.0 °F - 51.1 °F 65% 30.04 in 10.0 mi NNW 9.2 mph - N/A   Clear
10:54 AM 64.9 °F - 48.9 °F 56% 30.05 in 10.0 mi NNW 9.2 mph 16.1 mph N/A   Clear
11:54 AM 66.0 °F - 48.9 °F 54% 30.03 in 10.0 mi NW 10.4 mph - N/A   Clear
12:54 PM 68.0 °F - 48.9 °F 50% 30.01 in 10.0 mi NNW 9.2 mph - N/A   Clear
1:54 PM 69.1 °F - 48.9 °F 49% 29.99 in 10.0 mi NW 9.2 mph - N/A   Clear
2:54 PM 71.1 °F - 46.9 °F 42% 29.98 in 10.0 mi NNW 9.2 mph - N/A   Clear
3:54 PM 70.0 °F - 48.0 °F 46% 29.96 in 10.0 mi NW 9.2 mph - N/A   Clear
4:54 PM 71.1 °F - 48.0 °F 44% 29.96 in 10.0 mi NW 10.4 mph - N/A   Clear
5:54 PM 71.1 °F - 48.0 °F 44% 29.95 in 10.0 mi NW 6.9 mph - N/A   Clear
6:54 PM 69.1 °F - 46.9 °F 45% 29.96 in 10.0 mi NNW 10.4 mph - N/A   Clear
7:54 PM 64.9 °F - 46.9 °F 52% 29.97 in 10.0 mi North 3.5 mph - N/A   Clear
8:54 PM 64.0 °F - 48.9 °F 58% 29.98 in 10.0 mi Calm Calm - N/A   Clear
9:54 PM 61.0 °F - 50.0 °F 67% 29.99 in 10.0 mi Calm Calm - N/A   Clear
10:54 PM 60.1 °F - 52.0 °F 75% 29.99 in 10.0 mi Calm Calm - N/A   Clear
11:54 PM 59.0 °F - 53.1 °F 81% 29.99 in 10.0 mi Calm Calm - N/A   Clear